| time (UTC) | temp F | wind direction | speed knots | gust knots | rain 1hr in | rain 24hr in | rain mn in | humidity % | barometer mb |
| 20260506071509 | 59 | 307 | 2.6 | 4.3 | 0.00 | 0.00 | 0.00 | 66 | 1011.7 |
| 20260506020153 | 56 | 121 | 0.0 | 2.6 | 0.00 | 0.00 | 0.00 | 63 | 1011.8 |
| 20260506014511 | 58 | 319 | 0.0 | 0.9 | 0.00 | 0.00 | 0.00 | 61 | 1011.8 |
| 20260506011520 | 58 | 335 | 1.7 | 3.5 | 0.00 | 0.00 | 0.00 | 60 | 1011.9 |
| 20260506010003 | 58 | 302 | 1.7 | 4.3 | 0.00 | 0.00 | 0.00 | 59 | 1012.0 |
| 20260505223025 | 60 | 301 | 1.7 | 4.3 | 0.00 | 0.00 | 0.00 | 54 | 1012.7 |
| 20260505221511 | 61 | 338 | 2.6 | 4.3 | 0.00 | 0.00 | 0.00 | 53 | 1012.8 |
| 20260505210001 | 63 | 302 | 0.9 | 2.6 | 0.00 | 0.00 | 0.00 | 50 | 1012.8 |
| 20260505193201 | 66 | 263 | 0.0 | 6.1 | 0.00 | 0.00 | 0.00 | 57 | 1011.8 |
| 20260505191502 | 68 | 300 | 1.7 | 7.0 | 0.00 | 0.00 | 0.00 | 54 | 1011.7 |
| 20260505173007 | 75 | 293 | 3.5 | 7.0 | 0.00 | 0.00 | 0.00 | 35 | 1011.3 |
| 20260505171505 | 75 | 306 | 2.6 | 9.6 | 0.00 | 0.00 | 0.00 | 35 | 1011.3 |
| 20260505123014 | 70 | 276 | 2.6 | 8.7 | 0.00 | 0.00 | 0.00 | 38 | 1013.6 |
| 20260505113004 | 67 | 242 | 1.7 | 7.8 | 0.00 | 0.00 | 0.00 | 43 | 1014.4 |
| 20260505101515 | 65 | 355 | 0.9 | 4.3 | 0.00 | 0.00 | 0.00 | 50 | 1014.9 |
| 20260505100018 | 64 | 339 | 2.6 | 8.7 | 0.00 | 0.00 | 0.00 | 51 | 1015.0 |
| 20260505094512 | 63 | 41 | 0.0 | 7.8 | 0.00 | 0.00 | 0.00 | 53 | 1015.1 |
| 20260505093004 | 63 | 40 | 0.0 | 7.0 | 0.00 | 0.00 | 0.00 | 52 | 1015.1 |
| 20260505084523 | 62 | 290 | 0.9 | 2.6 | 0.00 | 0.00 | 0.00 | 53 | 1015.1 |
| 20260505081517 | 60 | 345 | 1.7 | 4.3 | 0.00 | 0.00 | 0.00 | 56 | 1015.2 |